Regional Weather Roundup
Issued by NWS

Home | Current Version | Previous Version | Graphics & Text | Print | Product List | Glossary On
Versions: 1 2 3 4 5 6 7 8 9 10 11 12 13 14 15 16 17 18 19 20 21 22 23 24 25 26 27 28 29 30 31 32 33 34 35 36 37 38 39 40 41 42 43 44 45 46 47 48 49 50
800
ASUS45 KTFX 212310
RWRMT
MONTANA REGIONAL WEATHER ROUNDUP
NATIONAL WEATHER SERVICE GREAT FALLS MT
500 PM MDT THU SEP 21 2017

NOTE: "FAIR" INDICATES FEW OR NO CLOUDS BELOW 12000 FEET WITH NO
SIGNIFICANT WEATHER AND/OR OBSTRUCTIONS TO VISIBILITY.

MTZ001>007-043-220000-
WEST OF THE DIVIDE

CITY           SKY/WX    TMP DP  RH WIND       PRES   REMARKS
KALISPELL      CLOUDY    55  35  47 S3        29.87R
MISSOULA       CLOUDY    51  33  50 NW7       29.87S
BUTTE          CLOUDY    43  29  57 CALM      29.86S
MULLAN PASS    FOG       33  31  92 N3        29.89R VSB 1/4
ANACONDA         N/A     46  25  42 N5        29.86R
DEER LODGE       N/A     48  23  37 NE3       29.88R
EUREKA           N/A     48  41  76 CALM      29.91R
HAMILTON         N/A     52  34  50 N8        29.84S
LIBBY            N/A     55  36  47 W7        29.87R
$$

MTZ008-052>055-220000-
SOUTHWEST MONTANA

CITY           SKY/WX    TMP DP  RH WIND       PRES   REMARKS
BOZEMAN        LGT RAIN  45  33  63 NW5       29.89R
DILLON         CLOUDY    41  32  70 E6        29.86S
W YELLOWSTONE  CLOUDY    39  36  87 VRB5G16   29.84S
ENNIS          CLOUDY    39  36  87 N13       29.91S WCI  32
THREE FORKS      N/A     47  31  54 CALM      29.90R
$$

MTZ009-010-012-014-046-048-049-054-220000-
EAST SLOPES AND CENTRAL MONTANA

CITY           SKY/WX    TMP DP  RH WIND       PRES   REMARKS
CUT BANK       LGT RAIN  44  36  73 N12       29.91R
GREAT FALLS    CLOUDY    52  27  38 E6        29.86R
MALMSTROM AFB  MOSUNNY   53  28  39 NE5       29.87R
HELENA         CLOUDY    53  27  36 NE6       29.85R
BOWMANS CRNR     N/A     49  25  38 E9        29.84R
CHOTEAU          N/A     54  28  37 NE7       29.88R
FAIRFIELD      PTSUNNY   52  25  35 NE5       29.85R
POWER            N/A     52  27  37 E7        29.86R
RAYNESFORD       N/A     51  22  32 CALM      29.88R
ULM            PTSUNNY   53  25  34 E7        29.86R
$$

MTZ011-013-016-021-045-047-050-051-220000-
NORTH CENTRAL MONTANA

CITY           SKY/WX    TMP DP  RH WIND       PRES   REMARKS
HAVRE          PTSUNNY   55  31  39 NW8       29.88R
LEWISTOWN      CLOUDY    50  27  40 NW6       29.87R
N BAR RANCH    CLOUDY    48  28  46 E8        29.90R
CHINOOK          N/A     55  30  38 W10       29.88R
DENTON           N/A     52  29  42 N7        29.85R
GEYSER         PTSUNNY   50  30  45 NE9       29.87R
GRASS RANGE    CLOUDY    51  30  44 E8        29.85R
JUDITH GAP     PTSUNNY   48  30  49 NW5       29.87R
WINIFRED       PTSUNNY   52  29  40 NW5       29.88R
$$

MTZ017>020-022>027-061-062-220000-
NORTHEAST MONTANA

CITY           SKY/WX    TMP DP  RH WIND       PRES   REMARKS
GLASGOW        CLOUDY    59  31  34 NW8       29.83S
JORDAN           N/A     57  32  38 N9        29.85R
SIDNEY         MOSUNNY   61  33  35 N8        29.81R
WOLF POINT     CLOUDY    61  36  39 W6        29.83R
MALTA          MOSUNNY   59  30  33 W12       29.86R
POPLAR           N/A     61  36  39 N6        29.83R
$$

MTZ028>42-056>058-220000-
SOUTHCENTRAL AND SOUTHEAST MONTANA

CITY           SKY/WX    TMP DP  RH WIND       PRES   REMARKS
BAKER          SUNNY     64  32  30 N12       29.81R
BILLINGS       LGT RAIN  48  41  76 E6        29.88R
LIVINGSTON     LGT RAIN  44  38  79 N6        29.88R
MILES CITY     CLOUDY    54  36  50 NW9       29.84R
BIG TIMBER     PTSUNNY   45  36  70 W3        29.91R
HARLOWTON      PTSUNNY   49  27  42 MISG      29.87R
LAUREL           N/A     48  43  81 NE7       29.88R
$$

REGIONAL REPORTS...DAKOTAS

CITY           SKY/WX    TMP DP  RH WIND       PRES   REMARKS
WILLISTON      PTSUNNY   63  36  36 NW12      29.80R
MINOT          SUNNY     70  46  42 NW13      29.72R
DICKINSON      SUNNY     67  40  37 N13       29.76R
BEACH          PTSUNNY   61  30  31 N15       29.85R
CROSBY           N/A     59  36  41 NW14      29.81R
TIOGA            N/A     61  36  39 NW15      29.80R
WATFORD CITY     N/A     63  37  39 N15       29.78S
BISMARCK       SUNNY     76  50  40 NW14      29.68R
GRAND FORKS    MOSUNNY   79  51  37 SE15      29.66F
FARGO          CLOUDY    79  59  50 SE10G22   29.67S
BUFFALO SD       N/A     71  41  33 NE17      29.69R
RAPID CITY     SUNNY     75  39  27 N22       29.69S
$$

REGIONAL REPORTS...WYOMING/IDAHO/WASHINGTON

CITY           SKY/WX    TMP DP  RH WIND       PRES   REMARKS
GILLETTE       SUNNY     64  40  41 N14G23    29.77R
SHERIDAN       CLOUDY    50  41  71 NW15      29.85R
BUFFALO WY     CLOUDY    51  39  63 NW14      29.84R
IDAHO FALLS    CLOUDY    42  38  85 CALM      29.82F
SALMON         PTSUNNY   53  25  33 CALM      29.82R
BOISE          CLOUDY    57  33  40 NW15      29.79F
SPOKANE        PTSUNNY   49  42  77 E5        29.91R
$$

REGIONAL REPORTS...ALBERTA

CITY           SKY/WX    TMP DP  RH WIND       PRES   REMARKS
EDMONTON       CLOUDY    39  37  93 N16       29.95  WCI  30
CALGARY        PTSUNNY   37  34  87 NW14G21   29.94R WCI  29
LETHBRIDGE     PTSUNNY   46  30  53 NW16G22   29.93R
MEDICINE HAT   CLOUDY    50  30  46 W10G17    29.88R
$$

REGIONAL REPORTS...SASKATCHEWAN

CITY           SKY/WX    TMP DP  RH WIND       PRES   REMARKS
SWIFT CURRENT  PTSUNNY   48  30  49 W15G22    29.84R
REGINA         PTSUNNY   57  36  44 NW13      29.81R
SASKATOON      PTSUNNY   50  39  66 W13       29.80R
$$




USA.gov is the U.S. government's official web portal to all federal, state and local government web resources and services.